Location: Gez
(43.0167°N, 0.1000°W)
Time: 12:46:12
(UTC+00:00)

SL-24 R/B - Pass Details

Date: 22 January 2026
Orbit: 679 x 1188 km, 98.2° (Epoch: 10 February)

Event Time Altitude Azimuth Distance (km) Brightness Sun altitude
Rises 04:54:16 0° 7° (N) 4,092 8.8 -27.3°
Reaches altitude 10° 04:57:04 10° 1° (N) 3,125 8.1 -26.8°
Enters shadow 05:02:21 39° 322° (NW) 1,694 6.4 -25.8°
